Simultaneous Nadir Overpasses (SNOs) Predictions

Prediction of SNOs between GOES-16 and NOAA-20 Satellite Orbit:

Table of predicted SNOs for the next 14.0 days since TLE Epoch: 11/13/2020
Index Date Time (GOES-16) GOES-16 Lat,Lon NOAA-20 Lat,Lon Distance(km) Time Diff (sec)
1 11/14/2020 18:26:18 -0.01, -75.17 -0.17, -75.74 66.39 80
2 11/15/2020 18:10:15 -0.01, -75.15 0.89, -71.22 447.59 80
3 11/17/2020 06:32:03 0.01, -75.10 0.31, -76.49 158.72 80
4 11/18/2020 06:10:39 0.01, -75.08 -0.69, -71.96 355.23 80
5 11/19/2020 18:32:36 -0.01, -75.06 -0.47, -77.27 251.08 80
6 11/20/2020 18:16:32 -0.01, -75.05 0.52, -72.74 263.49 80
7 11/22/2020 06:38:20 0.00, -75.01 0.67, -78.01 341.15 80
8 11/23/2020 06:16:56 0.01, -75.00 -0.33, -73.47 173.79 80
9 11/24/2020 18:38:53 -0.00, -75.00 -0.83, -78.79 431.10 80
10 11/25/2020 18:22:48 -0.00, -74.99 0.17, -74.25 84.50 80
